カタログに戻る

DELTA 1 DEB

運用中PO
NORAD 37651·DEBRIS·🇺🇸 United States

打ち上げ Mar 5, 1978 から Vandenberg Space Force Base

Loading…

次のパス (今後24時間)

TLE

最新Source: Space-Track

元期: Sep 13, 2026, 01:25 UTC

1 37651U 78026JN  26256.05915500  .00001271  00000-0  47889-3 0  9991
2 37651  99.0988  16.0313 0035452 180.8677 179.2450 14.32974642216208

AllMySatでDELTA 1 DEBをリアルタイム追跡

Download on the App Store